Regional Weather Roundup
Issued by NWS

Home | Current Version | Previous Version | Text Only | Print | Product List | Glossary Off
Versions: 1 2 3 4 5 6 7 8 9 10 11 12 13 14 15 16 17 18 19 20 21 22 23 24 25 26 27 28 29 30 31 32 33 34 35 36 37 38 39 40 41 42 43 44 45 46 47 48 49 50

673
ASUS43 KDMX 180001
RWRIA

WEATHER ROUNDUP FOR IOWA
NATIONAL WEATHER SERVICE DES MOINES IA
600 PM CST SUN DEC 17 2017

NOTE: "FAIR" INDICATES FEW OR NO CLOUDS BELOW 12,000 FEET WITH NO
SIGNIFICANT WEATHER AND/OR OBSTRUCTIONS TO VISIBILITY.

* - THESE STATIONS ARE NOT NWS STATIONS...THUS NOT UNDER NWS
QUALITY CONTROL.  THEY ALSO DO NOT REPORT WEATHER SUCH
AS PRECIPITATION OR FOG.

IAZ001>003-012>014-020>022-031>034-043>046-180100-
   NORTHWEST IOWA

CITY           SKY/WX    TMP DP  RH WIND       PRES   REMARKS
CARROLL *      CLOUDY    30  27  86 CALM      29.98S
CHEROKEE *     CLOUDY    32  28  85 CALM      29.97R
DENISON *      CLOUDY    30  27  86 S3        30.00S
LE MARS *      CLOUDY    32  28  86 CALM      29.97S
ORANGE CITY *  CLOUDY    32  28  86 CALM      29.97R
SHELDON *      PTCLDY    25  25 100 CALM      29.95R FOG
SIOUX CITY     CLOUDY    32  26  78 NW3       29.99R
6HR MIN TEMP:  32; 6HR MAX TEMP:  35;

SPENCER        CLOUDY    30  26  85 S3        29.96R
6HR MIN TEMP:  30; 6HR MAX TEMP:  34;

STORM LAKE *   CLOUDY    30  27  86 N3        29.96R
$$

IAZ055>058-069>071-079>083-090>094-180100-
   SOUTHWEST IOWA

CITY           SKY/WX    TMP DP  RH WIND       PRES   REMARKS
ATLANTIC *     CLOUDY    28  25  86 N3        29.99R
AUDUBON *      CLOUDY    25  19  80 CALM      29.98S
CLARINDA *     CLOUDY    34  34 100 NW6         N/A  WCI  29
COUNCIL BLFS * CLOUDY    30  30 100 N5        29.98F WCI  25
CRESTON *      PTCLDY    32  32 100 W7        29.99R WCI  26
HARLAN  *      CLOUDY    27  25  93 NW7       30.02S WCI  19
LAMONI         CLOUDY    41  39  93 W7        29.98R
6HR MIN TEMP:  41; 6HR MAX TEMP:  45;

RED OAK *      PTCLDY    32  30  93 W5        29.99F WCI  27
SHENANDOAH *   CLOUDY    36  32  87 W3        30.01F FOG
$$

IAZ047>049-059>061-072>074-084-180100-
   CENTRAL IOWA

CITY           SKY/WX    TMP DP  RH WIND       PRES   REMARKS
AMES           CLOUDY    31  28  89 CALM      29.97R
6HR MIN TEMP:  31; 6HR MAX TEMP:  39;

ANKENY *       CLOUDY    37  30  75 CALM      29.99R
BOONE *        CLOUDY    32  28  86 CALM      29.95F HAZE
CHARITON *     CLOUDY    37  37 100 CALM      29.97R FOG
DES MOINES     CLOUDY    36  31  82 SW6       29.98R WCI  31
6HR MIN TEMP:  34; 6HR MAX TEMP:  39; 6HR PCP:  0.01;

GRINNELL*      CLOUDY    37  33  87 S7        29.97S WCI  31
KNOXVILLE *    CLOUDY    37  36  93 S3        29.96S
MARSHALLTOWN   CLOUDY    35  31  85 CALM      29.96R
6HR MIN TEMP:  34; 6HR MAX TEMP:  39; 6HR PCP: TRACE;

NEWTON *       CLOUDY    37  34  87 SW5       29.97S WCI  34
PELLA *        PTCLDY    37  36  95 CALM      29.98F FOG
PERRY *          N/A     29  24  81 W9        29.98S WCI  20
$$

IAZ004>006-015-016-023>025-035-036-180100-
   NORTH CENTRAL IOWA

CITY           SKY/WX    TMP DP  RH WIND       PRES   REMARKS
ALGONA *       CLOUDY    28  27  93 S3        29.97R
CLARION *      CLOUDY    30  30 100 CALM      29.97R
ESTHERVILLE    CLOUDY    28  25  88 SE3       29.95R
6HR MIN TEMP:  27; 6HR MAX TEMP:  31; 6HR PCP: TRACE;

FORT DODGE *   CLOUDY    30  28  92 NW3       29.98R
MASON CITY     CLOUDY    28  26  92 E3        29.98R FOG
6HR MIN TEMP:  28; 6HR MAX TEMP:  29;

FOREST CITY *  CLOUDY    30  30 100 SE5       29.96R FOG     WCI  25
WEBSTER CITY * CLOUDY    32  28  86 NW5       29.96R WCI  27
IOWA FALLS *   CLOUDY    33  30  87 CALM      29.97R
$$

IAZ007>011-017>019-026>030-037>042-050>054-066-180100-
   NORTHEAST IOWA

CITY           SKY/WX    TMP DP  RH WIND       PRES   REMARKS
CEDAR RAPIDS   LGT RAIN  36  34  92 S5        29.96F FOG     WCI  32
6HR MIN TEMP:  36; 6HR MAX TEMP:  39; 6HR PCP: TRACE;

CLINTON *      MIX PCPN  36  34  92 E5        29.99R FOG     WCI  32
DECORAH *      CLOUDY    32  30  93 CALM      29.95F
DUBUQUE        CLOUDY    34  30  85 CALM      29.98R FOG
6HR MIN TEMP:  33; 6HR MAX TEMP:  35;

MONTICELLO *   CLOUDY    36  32  87 SE3       29.97S
OELWEIN *      CLOUDY    34  34 100 E5        29.96S FOG     WCI  30
WATERLOO       CLOUDY    33  29  85 SE3       29.96F FOG
6HR MIN TEMP:  33; 6HR MAX TEMP:  36;

$$

IAZ064-065-067-068-078-180100-
   EAST CENTRAL IOWA

CITY           SKY/WX    TMP DP  RH WIND       PRES   REMARKS
DAVENPORT      CLOUDY    38  35  89 CALM      30.01S
6HR MIN TEMP:  38; 6HR MAX TEMP:  45; 6HR PCP:  0.01;

IOWA CITY      LGT RAIN  38  36  92 CALM      30.00S FOG
6HR MIN TEMP:  38; 6HR MAX TEMP:  41; 6HR PCP:  0.03;

MT. PLEASANT * FOG       41  41 100 CALM      30.00R VSB 3/4
MUSCATINE *    CLOUDY    39  37  93 CALM      30.00S FOG
QUAD CITIES    CLOUDY    40  38  93 CALM      29.99R
6HR MIN TEMP:  39; 6HR MAX TEMP:  45; 6HR PCP:  0.01;

$$

IAZ062-063-075>077-085>089-095>099-180100-
   SOUTHEAST IOWA

CITY           SKY/WX    TMP DP  RH WIND       PRES   REMARKS
BURLINGTON     CLOUDY    42  41  96 CALM      29.99S FOG
6HR MIN TEMP:  42; 6HR MAX TEMP:  48; 6HR PCP:  0.01;

FAIRFIELD *    CLOUDY    41  39  93 CALM      29.98S
FORT MADISON * CLOUDY    43  43 100 CALM      30.00S FOG
KEOKUK *       CLOUDY    45  43  93 MISG      29.99S FOG
OSKALOOSA *    CLOUDY    37  37  98 CALM      29.98S FOG
OTTUMWA        CLOUDY    40  38  93 CALM      29.98R FOG
6HR MIN TEMP:  39; 6HR MAX TEMP:  41; 6HR PCP:  0.01;

WASHINGTON *   CLOUDY    37  37 100 CALM      30.00R FOG
$$

ABBREVIATIONS USED IN REMARKS
   TC - TEMPERATURES IN CELSIUS
  WCI - WIND CHILL INDEX
   HX - HEAT INDEX
  VSB - VISIBILITY
$$





USA.gov is the U.S. government's official web portal to all federal, state and local government web resources and services.